When you browse on this site, cookies collect data to enhance your experience and personalize the content and advertising you see.
Visit our Privacy Policy to learn more. By continuing to use the site, you agree to this use of cookies and data.
  • In Latvia
  • List of Countries
  • For 7 days
  • Water Temperature
  • Satellite Maps
  • Weather Map
  • Weather Widgets
  • user-avatar
    Login

    Hourly Weather Uster

    Today, 19 July, Friday

    Time Temperature Precipitation Wind Pressure Humidity
    00:00 +18°C° 0.2 mm 1 mps 719 mmHg 78%
    01:00 +16°C° 0.2 mm 1 mps 719 mmHg 83%
    02:00 +16°C° 0 mm 1 mps 719 mmHg 84%
    03:00 +16°C° 0 mm 1 mps 719 mmHg 85%
    04:00 +16°C° 0 mm 1 mps 719 mmHg 85%
    05:00 +16°C° 0 mm 0 mps 720 mmHg 85%
    06:00 +16°C° 0 mm 0 mps 720 mmHg 84%
    07:00 +17°C° 0 mm 0 mps 720 mmHg 84%
    08:00 +21°C° 0 mm 1 mps 720 mmHg 75%
    09:00 +23°C° 0 mm 1 mps 720 mmHg 66%
    10:00 +25°C° 0 mm 1 mps 721 mmHg 57%
    11:00 +26°C° 0 mm 1 mps 720 mmHg 54%
    12:00 +27°C° 0 mm 2 mps 720 mmHg 50%
    13:00 +28°C° 0 mm 2 mps 720 mmHg 46%
    14:00 +28°C° 0.1 mm 2 mps 720 mmHg 47%
    15:00 +28°C° 0.1 mm 2 mps 720 mmHg 47%
    16:00 +28°C° 0.1 mm 2 mps 720 mmHg 48%
    17:00 +27°C° 0 mm 2 mps 720 mmHg 56%
    18:00 +26°C° 0 mm 2 mps 720 mmHg 64%
    19:00 +25°C° 0 mm 1 mps 720 mmHg 72%
    20:00 +23°C° 0 mm 1 mps 720 mmHg 76%
    21:00 +21°C° 0 mm 1 mps 720 mmHg 81%
    22:00 +19°C° 0 mm 1 mps 720 mmHg 85%
    23:00 +19°C° 0 mm 1 mps 720 mmHg 87%

    Tomorrow, 20 July, Saturday

    Time Temperature Precipitation Wind Pressure Humidity
    00:00 +18°C° 0 mm 1 mps 720 mmHg 89%
    01:00 +18°C° 0 mm 1 mps 720 mmHg 90%
    02:00 +18°C° 0 mm 1 mps 720 mmHg 90%
    03:00 +16°C° 0 mm 1 mps 720 mmHg 90%
    04:00 +16°C° 0 mm 1 mps 720 mmHg 90%
    05:00 +18°C° 0 mm 1 mps 720 mmHg 87%
    06:00 +17°C° 0 mm 0 mps 720 mmHg 83%
    07:00 +19°C° 0 mm 0 mps 720 mmHg 79%
    08:00 +21°C° 0 mm 0 mps 720 mmHg 70%
    09:00 +24°C° 0 mm 0 mps 721 mmHg 61%
    10:00 +27°C° 0 mm 0 mps 721 mmHg 52%
    11:00 +29°C° 0 mm 1 mps 721 mmHg 48%
    12:00 +30°C° 0 mm 2 mps 721 mmHg 44%
    13:00 +31°C° 0 mm 2 mps 721 mmHg 40%
    14:00 +31°C° 0.1 mm 3 mps 721 mmHg 40%
    15:00 +31°C° 0.1 mm 3 mps 721 mmHg 40%
    16:00 +33°C° 0.1 mm 3 mps 721 mmHg 40%
    17:00 +30°C° 0 mm 2 mps 721 mmHg 49%
    18:00 +28°C° 0 mm 2 mps 721 mmHg 58%
    19:00 +26°C° 0 mm 1 mps 721 mmHg 67%
    20:00 +25°C° 0.1 mm 1 mps 721 mmHg 70%
    21:00 +23°C° 0.1 mm 1 mps 722 mmHg 72%
    22:00 +22°C° 0.1 mm 1 mps 722 mmHg 74%
    23:00 +21°C° 0.1 mm 1 mps 722 mmHg 74%

    Day after tomorrow, 21 July, Sunday

    Time Temperature Precipitation Wind Pressure Humidity
    00:00 +21°C° 0.1 mm 1 mps 722 mmHg 74%
    01:00 +21°C° 0.1 mm 1 mps 722 mmHg 74%
    02:00 +20°C° 0.3 mm 1 mps 722 mmHg 77%
    03:00 +20°C° 0.3 mm 1 mps 722 mmHg 81%
    04:00 +19°C° 0.3 mm 1 mps 722 mmHg 85%
    05:00 +20°C° 0.4 mm 1 mps 722 mmHg 86%
    06:00 +20°C° 0.4 mm 1 mps 723 mmHg 88%
    07:00 +21°C° 0.4 mm 1 mps 723 mmHg 90%
    08:00 +23°C° 0.1 mm 1 mps 723 mmHg 81%
    09:00 +25°C° 0.1 mm 1 mps 724 mmHg 71%
    10:00 +27°C° 0.1 mm 1 mps 724 mmHg 62%
    11:00 +28°C° 0.1 mm 2 mps 724 mmHg 59%
    12:00 +29°C° 0.1 mm 2 mps 724 mmHg 56%
    13:00 +30°C° 0.1 mm 3 mps 724 mmHg 53%
    14:00 +30°C° 0.2 mm 3 mps 724 mmHg 55%
    15:00 +30°C° 0.2 mm 2 mps 724 mmHg 57%
    16:00 +30°C° 0.2 mm 2 mps 724 mmHg 59%
    17:00 +28°C° 0.4 mm 2 mps 724 mmHg 66%
    18:00 +27°C° 0.4 mm 1 mps 725 mmHg 74%
    19:00 +25°C° 0.4 mm 1 mps 725 mmHg 81%
    20:00 +24°C° 0.4 mm 1 mps 725 mmHg 84%
    21:00 +22°C° 0.4 mm 1 mps 725 mmHg 86%
    22:00 +18°C° 0.4 mm 0 mps 726 mmHg 88%
    23:00 +18°C° 0 mm 0 mps 725 mmHg 90%

    22 July, Monday

    Time Temperature Precipitation Wind Pressure Humidity
    00:00 +18°C° 0 mm 0 mps 725 mmHg 91%
    01:00 +17°C° 0 mm 0 mps 725 mmHg 92%
    02:00 +17°C° 0 mm 0 mps 725 mmHg 92%
    03:00 +17°C° 0 mm 0 mps 725 mmHg 93%
    04:00 +16°C° 0 mm 0 mps 725 mmHg 93%
    05:00 +17°C° 0 mm 0 mps 725 mmHg 93%
    06:00 +18°C° 0 mm 0 mps 725 mmHg 92%
    07:00 +19°C° 0 mm 0 mps 726 mmHg 91%
    08:00 +23°C° 0 mm 1 mps 726 mmHg 82%
    09:00 +25°C° 0 mm 1 mps 726 mmHg 74%
    10:00 +27°C° 0 mm 1 mps 726 mmHg 65%
    11:00 +28°C° 0.1 mm 2 mps 726 mmHg 60%
    12:00 +30°C° 0.1 mm 2 mps 726 mmHg 56%
    13:00 +31°C° 0.1 mm 2 mps 726 mmHg 52%
    14:00 +31°C° 0 mm 2 mps 726 mmHg 51%
    15:00 +31°C° 0 mm 2 mps 726 mmHg 51%
    16:00 +31°C° 0 mm 2 mps 726 mmHg 51%
    17:00 +30°C° 0 mm 2 mps 726 mmHg 59%
    18:00 +28°C° 0 mm 2 mps 725 mmHg 68%
    19:00 +27°C° 0 mm 2 mps 725 mmHg 76%
    20:00 +25°C° 0 mm 2 mps 725 mmHg 82%
    21:00 +23°C° 0 mm 1 mps 725 mmHg 87%
    22:00 +21°C° 0 mm 1 mps 725 mmHg 93%
    23:00 +21°C° 0 mm 1 mps 725 mmHg 93%

    23 July, Tuesday

    Time Temperature Precipitation Wind Pressure Humidity
    00:00 +20°C° 0 mm 1 mps 725 mmHg 93%
    01:00 +18°C° 0 mm 0 mps 725 mmHg 93%
    02:00 +17°C° 0 mm 0 mps 724 mmHg 93%
    03:00 +17°C° 0 mm 0 mps 724 mmHg 93%
    04:00 +16°C° 0 mm 0 mps 724 mmHg 93%
    05:00 +17°C° 0 mm 0 mps 724 mmHg 90%
    06:00 +18°C° 0 mm 0 mps 724 mmHg 88%
    07:00 +19°C° 0 mm 0 mps 724 mmHg 86%
    08:00 +24°C° 0 mm 1 mps 724 mmHg 78%
    09:00 +26°C° 0 mm 1 mps 724 mmHg 70%
    10:00 +28°C° 0 mm 1 mps 724 mmHg 62%
    11:00 +30°C° 0 mm 1 mps 724 mmHg 56%
    12:00 +31°C° 0 mm 1 mps 724 mmHg 50%
    13:00 +33°C° 0 mm 1 mps 724 mmHg 44%
    14:00 +34°C° 0 mm 2 mps 723 mmHg 43%
    15:00 +34°C° 0 mm 2 mps 723 mmHg 42%
    16:00 +34°C° 0 mm 2 mps 723 mmHg 41%
    17:00 +31°C° 0 mm 2 mps 723 mmHg 51%
    18:00 +30°C° 0 mm 2 mps 722 mmHg 62%
    19:00 +28°C° 0 mm 2 mps 722 mmHg 72%
    20:00 +26°C° 0 mm 1 mps 722 mmHg 78%
    21:00 +24°C° 0 mm 1 mps 722 mmHg 83%
    22:00 +23°C° 0 mm 1 mps 722 mmHg 89%
    23:00 +22°C° 0 mm 1 mps 722 mmHg 89%

    24 July, Wednesday

    Time Temperature Precipitation Wind Pressure Humidity
    00:00 +20°C° 0 mm 0 mps 722 mmHg 88%
    01:00 +19°C° 0 mm 0 mps 722 mmHg 88%
    02:00 +19°C° 0 mm 0 mps 721 mmHg 89%
    03:00 +18°C° 0 mm 0 mps 721 mmHg 89%
    04:00 +18°C° 0 mm 0 mps 721 mmHg 90%
    05:00 +19°C° 0 mm 0 mps 721 mmHg 88%
    06:00 +19°C° 0 mm 0 mps 721 mmHg 86%
    07:00 +20°C° 0 mm 0 mps 721 mmHg 84%
    08:00 +23°C° 0 mm 0 mps 721 mmHg 76%
    09:00 +27°C° 0 mm 1 mps 721 mmHg 68%
    10:00 +29°C° 0 mm 1 mps 721 mmHg 60%
    11:00 +30°C° 0 mm 1 mps 720 mmHg 54%
    12:00 +32°C° 0 mm 1 mps 720 mmHg 48%
    13:00 +34°C° 0 mm 2 mps 720 mmHg 42%
    14:00 +34°C° 0 mm 2 mps 720 mmHg 42%
    15:00 +34°C° 0 mm 2 mps 719 mmHg 41%
    16:00 +34°C° 0 mm 2 mps 719 mmHg 41%
    17:00 +32°C° 0 mm 2 mps 719 mmHg 51%
    18:00 +30°C° 0 mm 2 mps 718 mmHg 62%
    19:00 +28°C° 0 mm 1 mps 718 mmHg 73%
    20:00 +26°C° 0 mm 1 mps 718 mmHg 78%
    21:00 +25°C° 0 mm 1 mps 718 mmHg 82%
    22:00 +23°C° 0 mm 1 mps 718 mmHg 87%
    23:00 +23°C° 0 mm 1 mps 718 mmHg 87%
    Show more